UAL77 KBOS-KDCA

Flight info

Callsign UAL77
Flight time 1h 12m
Altitude 34000
Route SSOXS7 SSOXS Q167 ZIZZI KNUKK ATR LAFLN DEALE3
Aircraft B38M/M-SDE1FGHILORVWXY/HB1

Departure

Time 2026-05-06 00:31
Airport Boston Logan International Airport (KBOS)

Arrival

Time 2026-05-06 01:44
Airport Ronald Reagan Washington National Airport (KDCA)
Time Latitude Longitude Altitude Speed Heading
2026-05-05 23:59 42.36359 -71.01541 28 ft 0 kts 264°
2026-05-06 00:19 42.36360 -71.01526 28 ft 4 kts 269°
2026-05-06 00:20 42.36357 -71.01490 28 ft 4 kts 289°
2026-05-06 00:20 42.36344 -71.01461 28 ft 4 kts 321°
2026-05-06 00:20 42.36321 -71.01446 28 ft 4 kts 355°
2026-05-06 00:20 42.36299 -71.01449 28 ft 1 kts 20°
2026-05-06 00:21 42.36298 -71.01450 28 ft 1 kts 20°
2026-05-06 00:24 42.36300 -71.01449 28 ft 1 kts 20°
2026-05-06 00:24 42.36316 -71.01441 28 ft 4 kts 20°
2026-05-06 00:24 42.36349 -71.01425 28 ft 6 kts 20°
2026-05-06 00:25 42.36396 -71.01402 28 ft 8 kts 20°
2026-05-06 00:25 42.36458 -71.01371 28 ft 11 kts 24°
2026-05-06 00:25 42.36533 -71.01325 28 ft 13 kts 26°
2026-05-06 00:25 42.36622 -71.01278 28 ft 15 kts 17°
2026-05-06 00:26 42.36727 -71.01245 28 ft 17 kts
2026-05-06 00:26 42.36798 -71.01279 28 ft 8 kts 324°
2026-05-06 00:26 42.36844 -71.01293 28 ft 4 kts 21°
2026-05-06 00:26 42.36874 -71.01252 28 ft 11 kts 49°
2026-05-06 00:27 42.36951 -71.01150 28 ft 19 kts 39°
2026-05-06 00:27 42.37068 -71.01060 28 ft 20 kts 26°
2026-05-06 00:27 42.37200 -71.00973 28 ft 22 kts 25°
2026-05-06 00:27 42.37344 -71.00886 28 ft 24 kts 19°
2026-05-06 00:28 42.37450 -71.00837 28 ft 25 kts 19°
2026-05-06 00:28 42.37617 -71.00758 28 ft 26 kts 19°
2026-05-06 00:28 42.37777 -71.00682 28 ft 10 kts 21°
2026-05-06 00:28 42.37831 -71.00622 28 ft 11 kts 69°
2026-05-06 00:29 42.37833 -71.00609 28 ft 0 kts 81°
2026-05-06 00:29 42.37834 -71.00607 28 ft 1 kts 83°
2026-05-06 00:29 42.37834 -71.00597 28 ft 3 kts 88°
2026-05-06 00:29 42.37831 -71.00563 28 ft 5 kts 106°
2026-05-06 00:30 42.37828 -71.00552 28 ft 1 kts 108°
2026-05-06 00:30 42.37807 -71.00491 28 ft 13 kts 134°
2026-05-06 00:30 42.37718 -71.00509 28 ft 15 kts 200°
2026-05-06 00:30 42.37707 -71.00514 28 ft 2 kts 199°
2026-05-06 00:31 42.37393 -71.00662 30 ft 91 kts 200°
2026-05-06 00:31 42.36556 -71.01060 46 ft 159 kts 198°
2026-05-06 00:31 42.35431 -71.01628 667 ft 183 kts 200°
2026-05-06 00:31 42.34149 -71.02095 1644 ft 201 kts 189°
2026-05-06 00:32 42.32781 -71.01375 2675 ft 234 kts 150°
2026-05-06 00:32 42.31750 -70.99492 3047 ft 258 kts 130°
2026-05-06 00:32 42.30856 -70.97387 3079 ft 264 kts 120°
2026-05-06 00:32 42.30661 -70.94847 3429 ft 282 kts 81°
2026-05-06 00:33 42.31165 -70.92247 4395 ft 294 kts 78°
2026-05-06 00:33 42.31672 -70.89499 5213 ft 308 kts 78°
2026-05-06 00:33 42.32187 -70.86659 6251 ft 312 kts 78°
2026-05-06 00:33 42.32696 -70.83833 7269 ft 315 kts 78°
2026-05-06 00:34 42.33036 -70.80906 8275 ft 314 kts 96°
2026-05-06 00:34 42.32554 -70.78075 9314 ft 308 kts 118°
2026-05-06 00:34 42.31678 -70.75411 10216 ft 313 kts 118°
2026-05-06 00:34 42.30767 -70.72656 10787 ft 330 kts 119°
2026-05-06 00:35 42.29608 -70.69903 11212 ft 342 kts 136°
2026-05-06 00:35 42.27763 -70.67904 11758 ft 343 kts 158°
2026-05-06 00:35 42.25568 -70.66748 12326 ft 350 kts 165°
2026-05-06 00:35 42.23262 -70.65640 13204 ft 352 kts 166°
2026-05-06 00:36 42.20933 -70.64543 13955 ft 357 kts 166°
2026-05-06 00:36 42.18566 -70.63445 14694 ft 361 kts 166°
2026-05-06 00:36 42.16174 -70.62365 15374 ft 363 kts 169°
2026-05-06 00:36 42.13684 -70.62016 15974 ft 359 kts 189°
2026-05-06 00:37 42.11292 -70.62712 16622 ft 357 kts 200°
2026-05-06 00:37 42.08884 -70.63670 17238 ft 362 kts 200°
2026-05-06 00:37 42.06898 -70.64495 17781 ft 365 kts 201°
2026-05-06 00:37 42.04458 -70.65533 18391 ft 369 kts 201°
2026-05-06 00:38 42.01997 -70.66598 18934 ft 373 kts 201°
2026-05-06 00:38 41.99516 -70.67681 19521 ft 376 kts 201°
2026-05-06 00:38 41.97010 -70.68779 20046 ft 380 kts 201°
2026-05-06 00:38 41.94482 -70.69888 20584 ft 384 kts 201°
2026-05-06 00:39 41.91957 -70.70996 21114 ft 387 kts 201°
2026-05-06 00:39 41.89379 -70.72125 21642 ft 391 kts 201°
2026-05-06 00:39 41.86785 -70.73261 22165 ft 394 kts 201°
2026-05-06 00:39 41.84165 -70.74427 22675 ft 397 kts 204°
2026-05-06 00:40 41.81713 -70.76116 23167 ft 396 kts 213°
2026-05-06 00:40 41.79293 -70.77935 23609 ft 400 kts 212°
2026-05-06 00:40 41.76876 -70.79744 24017 ft 404 kts 212°
2026-05-06 00:40 41.74412 -70.81593 24436 ft 407 kts 212°
2026-05-06 00:41 41.71934 -70.83452 24840 ft 410 kts 213°
2026-05-06 00:41 41.69436 -70.85325 25247 ft 413 kts 213°
2026-05-06 00:41 41.66918 -70.87211 25638 ft 416 kts 213°
2026-05-06 00:41 41.64383 -70.89109 26028 ft 419 kts 213°
2026-05-06 00:42 41.61820 -70.91025 26415 ft 422 kts 213°
2026-05-06 00:42 41.59281 -70.92922 26770 ft 425 kts 213°
2026-05-06 00:42 41.56690 -70.94877 27116 ft 427 kts 216°
2026-05-06 00:42 41.54429 -70.97401 27461 ft 421 kts 233°
2026-05-06 00:43 41.52688 -71.00545 27781 ft 422 kts 238°
2026-05-06 00:43 41.51001 -71.03770 28099 ft 425 kts 239°
2026-05-06 00:43 41.49327 -71.07034 28467 ft 427 kts 239°
2026-05-06 00:43 41.47651 -71.10339 28811 ft 430 kts 239°
2026-05-06 00:44 41.45995 -71.13628 29143 ft 433 kts 240°
2026-05-06 00:44 41.44314 -71.16973 29454 ft 436 kts 240°
2026-05-06 00:44 41.42618 -71.20345 29759 ft 439 kts 240°
2026-05-06 00:44 41.40913 -71.23732 30081 ft 441 kts 240°
2026-05-06 00:45 41.39214 -71.27105 30356 ft 444 kts 240°
2026-05-06 00:45 41.37487 -71.30530 30648 ft 445 kts 240°
2026-05-06 00:45 41.35754 -71.33966 31012 ft 445 kts 240°
2026-05-06 00:45 41.34024 -71.37392 31401 ft 445 kts 240°
2026-05-06 00:46 41.32298 -71.40809 31783 ft 444 kts 240°
2026-05-06 00:46 41.30572 -71.44222 32166 ft 444 kts 240°
2026-05-06 00:46 41.28846 -71.47629 32540 ft 444 kts 240°
2026-05-06 00:46 41.27144 -71.50988 32918 ft 443 kts 240°
2026-05-06 00:47 41.25418 -71.54388 33286 ft 443 kts 240°
2026-05-06 00:47 41.23693 -71.57785 33661 ft 442 kts 241°
2026-05-06 00:47 41.21972 -71.61168 33960 ft 443 kts 241°
2026-05-06 00:48 41.18522 -71.67938 33961 ft 440 kts 241°
2026-05-06 00:48 41.15108 -71.74627 33963 ft 440 kts 241°
2026-05-06 00:49 41.11670 -71.81393 33949 ft 441 kts 241°
2026-05-06 00:49 41.08256 -71.88097 33952 ft 441 kts 241°
2026-05-06 00:50 41.04814 -71.94841 33953 ft 439 kts 240°
2026-05-06 00:50 41.01545 -72.01604 33953 ft 438 kts 242°
2026-05-06 00:51 40.98281 -72.08438 33950 ft 438 kts 242°
2026-05-06 00:51 40.95025 -72.15226 33965 ft 439 kts 242°
2026-05-06 00:52 40.91744 -72.22050 33961 ft 439 kts 242°
2026-05-06 00:52 40.88491 -72.28803 33964 ft 438 kts 242°
2026-05-06 00:53 40.85194 -72.35630 33964 ft 436 kts 242°
2026-05-06 00:53 40.81918 -72.42400 33954 ft 438 kts 242°
2026-05-06 00:54 40.77891 -72.48434 33983 ft 450 kts 225°
2026-05-06 00:54 40.73078 -72.53757 33963 ft 451 kts 225°
2026-05-06 00:55 40.68270 -72.59090 33970 ft 450 kts 227°
2026-05-06 00:55 40.63607 -72.64481 33963 ft 446 kts 226°
2026-05-06 00:56 40.58916 -72.69864 33972 ft 446 kts 226°
2026-05-06 00:56 40.54247 -72.75209 33977 ft 446 kts 226°
2026-05-06 00:57 40.49548 -72.80578 33977 ft 446 kts 226°
2026-05-06 00:57 40.44881 -72.85900 33973 ft 448 kts 226°
2026-05-06 00:58 40.40164 -72.91268 33984 ft 448 kts 226°
2026-05-06 00:58 40.35440 -72.96635 33993 ft 447 kts 226°
2026-05-06 00:59 40.30776 -73.01923 33987 ft 441 kts 226°
2026-05-06 00:59 40.26122 -73.07192 33997 ft 444 kts 226°
2026-05-06 01:00 40.21469 -73.12456 33988 ft 444 kts 226°
2026-05-06 01:00 40.16794 -73.17735 33995 ft 444 kts 226°
2026-05-06 01:01 40.12106 -73.23019 33993 ft 444 kts 226°
2026-05-06 01:01 40.07430 -73.28275 33996 ft 446 kts 226°
2026-05-06 01:02 40.02721 -73.33553 34006 ft 442 kts 226°
2026-05-06 01:02 39.98092 -73.38734 34002 ft 441 kts 226°
2026-05-06 01:03 39.93422 -73.43950 34007 ft 441 kts 226°
2026-05-06 01:03 39.88736 -73.49173 34017 ft 443 kts 226°
2026-05-06 01:04 39.84078 -73.54362 34007 ft 443 kts 226°
2026-05-06 01:04 39.79394 -73.59579 34007 ft 443 kts 226°
2026-05-06 01:05 39.74703 -73.64793 34008 ft 443 kts 226°
2026-05-06 01:05 39.70017 -73.69994 34013 ft 442 kts 226°
2026-05-06 01:06 39.65367 -73.75144 34014 ft 441 kts 226°
2026-05-06 01:06 39.60684 -73.80321 33851 ft 442 kts 226°
2026-05-06 01:06 39.58339 -73.82909 33525 ft 441 kts 226°
2026-05-06 01:07 39.56217 -73.85714 33083 ft 431 kts 238°
2026-05-06 01:07 39.54691 -73.89022 32650 ft 425 kts 249°
2026-05-06 01:07 39.53529 -73.92540 32257 ft 426 kts 249°
2026-05-06 01:07 39.52330 -73.96018 31849 ft 428 kts 249°
2026-05-06 01:08 39.51097 -73.99541 31455 ft 429 kts 248°
2026-05-06 01:08 39.49856 -74.03063 31055 ft 431 kts 248°
2026-05-06 01:08 39.48615 -74.06577 30668 ft 423 kts 247°
2026-05-06 01:08 39.47383 -74.10059 30384 ft 426 kts 247°
2026-05-06 01:09 39.46153 -74.13527 30160 ft 431 kts 247°
2026-05-06 01:09 39.44898 -74.17064 29911 ft 432 kts 247°
2026-05-06 01:09 39.43639 -74.20609 29648 ft 432 kts 246°
2026-05-06 01:09 39.42384 -74.24138 29378 ft 431 kts 246°
2026-05-06 01:10 39.41142 -74.27625 29125 ft 431 kts 246°
2026-05-06 01:10 39.39888 -74.31146 28850 ft 431 kts 246°
2026-05-06 01:10 39.38629 -74.34672 28603 ft 431 kts 246°
2026-05-06 01:10 39.37377 -74.38179 28362 ft 429 kts 246°
2026-05-06 01:11 39.36121 -74.41688 28111 ft 428 kts 246°
2026-05-06 01:11 39.34867 -74.45189 27861 ft 428 kts 246°
2026-05-06 01:11 39.33625 -74.48657 27431 ft 422 kts 246°
2026-05-06 01:11 39.32398 -74.52070 26580 ft 424 kts 246°
2026-05-06 01:12 39.31167 -74.55498 26380 ft 420 kts 246°
2026-05-06 01:12 39.29932 -74.58929 26132 ft 421 kts 246°
2026-05-06 01:12 39.28696 -74.62359 25910 ft 421 kts 245°
2026-05-06 01:12 39.27461 -74.65785 25685 ft 420 kts 245°
2026-05-06 01:13 39.26227 -74.69203 25465 ft 419 kts 245°
2026-05-06 01:13 39.25413 -74.71456 25320 ft 418 kts 245°
2026-05-06 01:13 39.24180 -74.74866 25086 ft 418 kts 245°
2026-05-06 01:13 39.22549 -74.79368 24795 ft 418 kts 245°
2026-05-06 01:14 39.20122 -74.86065 24362 ft 399 kts 245°
2026-05-06 01:14 39.19346 -74.88204 24148 ft 394 kts 245°
2026-05-06 01:14 39.18206 -74.91347 24044 ft 379 kts 245°
2026-05-06 01:15 39.17109 -74.94369 24009 ft 364 kts 245°
2026-05-06 01:15 39.16036 -74.97318 23994 ft 367 kts 245°
2026-05-06 01:15 39.14927 -75.00350 23932 ft 381 kts 245°
2026-05-06 01:15 39.13794 -75.03447 23938 ft 390 kts 245°
2026-05-06 01:16 39.12629 -75.06631 23971 ft 393 kts 245°
2026-05-06 01:16 39.11468 -75.09801 23960 ft 390 kts 245°
2026-05-06 01:16 39.10308 -75.12966 23949 ft 389 kts 245°
2026-05-06 01:16 39.09152 -75.16120 23943 ft 389 kts 245°
2026-05-06 01:17 39.07995 -75.19270 23935 ft 389 kts 244°
2026-05-06 01:17 39.06837 -75.22422 23915 ft 389 kts 245°
2026-05-06 01:17 39.05693 -75.25528 23588 ft 387 kts 244°
2026-05-06 01:17 39.04545 -75.28645 23019 ft 383 kts 244°
2026-05-06 01:18 39.03411 -75.31723 22486 ft 379 kts 244°
2026-05-06 01:18 39.02281 -75.34785 21971 ft 375 kts 244°
2026-05-06 01:18 39.01182 -75.37759 21475 ft 371 kts 244°
2026-05-06 01:18 39.00081 -75.40737 20986 ft 367 kts 244°
2026-05-06 01:19 38.98983 -75.43704 20499 ft 364 kts 244°
2026-05-06 01:19 38.97897 -75.46635 20019 ft 362 kts 243°
2026-05-06 01:19 38.96819 -75.49542 19544 ft 359 kts 243°
2026-05-06 01:19 38.95742 -75.52443 19076 ft 357 kts 243°
2026-05-06 01:20 38.94686 -75.55279 18629 ft 355 kts 243°
2026-05-06 01:20 38.93622 -75.58143 18162 ft 354 kts 243°
2026-05-06 01:20 38.92567 -75.60977 17814 ft 348 kts 243°
2026-05-06 01:20 38.91529 -75.63764 17483 ft 342 kts 243°
2026-05-06 01:21 38.90490 -75.66549 17028 ft 350 kts 243°
2026-05-06 01:21 38.89431 -75.69384 16592 ft 354 kts 243°
2026-05-06 01:21 38.88365 -75.72234 16184 ft 354 kts 243°
2026-05-06 01:21 38.87302 -75.75075 15763 ft 353 kts 244°
2026-05-06 01:22 38.86243 -75.77903 15317 ft 350 kts 244°
2026-05-06 01:22 38.85202 -75.80680 14891 ft 347 kts 244°
2026-05-06 01:22 38.84156 -75.83469 14449 ft 345 kts 244°
2026-05-06 01:22 38.83117 -75.86235 14005 ft 343 kts 244°
2026-05-06 01:23 38.82084 -75.88984 13544 ft 340 kts 244°
2026-05-06 01:23 38.81059 -75.91709 13087 ft 338 kts 244°
2026-05-06 01:23 38.80041 -75.94411 12638 ft 334 kts 244°
2026-05-06 01:23 38.79035 -75.97080 12203 ft 331 kts 244°
2026-05-06 01:24 38.78050 -75.99690 11812 ft 328 kts 244°
2026-05-06 01:24 38.77063 -76.02305 11408 ft 324 kts 244°
2026-05-06 01:24 38.76102 -76.04909 11063 ft 320 kts 249°
2026-05-06 01:24 38.75704 -76.07716 10942 ft 325 kts 269°
2026-05-06 01:25 38.75898 -76.10634 10896 ft 330 kts 273°
2026-05-06 01:25 38.76139 -76.13567 10841 ft 330 kts 274°
2026-05-06 01:25 38.76393 -76.16495 10801 ft 329 kts 274°
2026-05-06 01:25 38.76655 -76.19397 10733 ft 329 kts 274°
2026-05-06 01:26 38.76902 -76.22098 10670 ft 317 kts 274°
2026-05-06 01:26 38.77156 -76.24841 10611 ft 303 kts 274°
2026-05-06 01:26 38.77399 -76.27469 10555 ft 290 kts 274°
2026-05-06 01:26 38.77631 -76.29963 10496 ft 272 kts 274°
2026-05-06 01:27 38.77847 -76.32298 10455 ft 259 kts 274°
2026-05-06 01:27 38.78058 -76.34577 10408 ft 258 kts 274°
2026-05-06 01:27 38.78268 -76.36862 10377 ft 258 kts 274°
2026-05-06 01:27 38.78478 -76.39144 10320 ft 257 kts 274°
2026-05-06 01:28 38.78686 -76.41401 10277 ft 257 kts 274°
2026-05-06 01:28 38.78894 -76.43678 10228 ft 257 kts 274°
2026-05-06 01:28 38.79104 -76.45964 10154 ft 257 kts 274°
2026-05-06 01:28 38.79311 -76.48236 10059 ft 256 kts 274°
2026-05-06 01:29 38.79518 -76.50507 10033 ft 256 kts 274°
2026-05-06 01:29 38.79723 -76.52779 10022 ft 256 kts 272°
2026-05-06 01:29 38.79810 -76.55049 9916 ft 255 kts 269°
2026-05-06 01:29 38.79881 -76.57304 9782 ft 254 kts 269°
2026-05-06 01:30 38.79956 -76.59567 9644 ft 253 kts 269°
2026-05-06 01:30 38.80034 -76.61824 9508 ft 252 kts 269°
2026-05-06 01:30 38.80113 -76.64068 9371 ft 252 kts 269°
2026-05-06 01:30 38.80193 -76.66315 9249 ft 252 kts 269°
2026-05-06 01:31 38.80272 -76.68561 9103 ft 251 kts 269°
2026-05-06 01:31 38.80351 -76.70796 8982 ft 251 kts 269°
2026-05-06 01:31 38.80429 -76.73012 8859 ft 250 kts 269°
2026-05-06 01:31 38.80507 -76.75244 8722 ft 250 kts 269°
2026-05-06 01:32 38.80685 -76.77466 8578 ft 254 kts 282°
2026-05-06 01:32 38.81534 -76.79475 8427 ft 261 kts 302°
2026-05-06 01:32 38.82633 -76.81298 8304 ft 263 kts 301°
2026-05-06 01:32 38.83750 -76.83139 8185 ft 263 kts 302°
2026-05-06 01:33 38.84881 -76.84987 8027 ft 263 kts 302°
2026-05-06 01:33 38.86016 -76.86829 7907 ft 263 kts 302°
2026-05-06 01:33 38.87154 -76.88672 7782 ft 264 kts 302°
2026-05-06 01:33 38.88375 -76.90450 7620 ft 268 kts 309°
2026-05-06 01:34 38.89714 -76.92118 7474 ft 268 kts 309°
2026-05-06 01:34 38.91023 -76.93768 7335 ft 267 kts 308°
2026-05-06 01:34 38.92343 -76.95445 7195 ft 266 kts 308°
2026-05-06 01:34 38.93657 -76.97126 7059 ft 265 kts 308°
2026-05-06 01:35 38.94963 -76.98803 6927 ft 265 kts 308°
2026-05-06 01:35 38.96266 -77.00482 6793 ft 266 kts 307°
2026-05-06 01:35 38.97570 -77.02161 6657 ft 266 kts 308°
2026-05-06 01:35 38.98876 -77.03845 6518 ft 265 kts 307°
2026-05-06 01:36 39.00159 -77.05501 6374 ft 265 kts 307°
2026-05-06 01:36 39.01458 -77.07179 6237 ft 265 kts 307°
2026-05-06 01:36 39.02756 -77.08856 6089 ft 264 kts 307°
2026-05-06 01:36 39.04065 -77.10522 5940 ft 264 kts 308°
2026-05-06 01:37 39.05386 -77.12151 5781 ft 263 kts 308°
2026-05-06 01:37 39.06703 -77.13796 5639 ft 261 kts 304°
2026-05-06 01:37 39.07540 -77.15715 5472 ft 233 kts 275°
2026-05-06 01:37 39.07497 -77.17628 5348 ft 200 kts 246°
2026-05-06 01:38 39.06943 -77.19168 5306 ft 185 kts 239°
2026-05-06 01:38 39.06348 -77.20641 5275 ft 185 kts 239°
2026-05-06 01:38 39.05682 -77.22021 5258 ft 182 kts 223°
2026-05-06 01:38 39.04541 -77.22686 5213 ft 187 kts 188°
2026-05-06 01:39 39.03235 -77.22397 5192 ft 198 kts 170°
2026-05-06 01:39 39.01917 -77.21826 5220 ft 200 kts 169°
2026-05-06 01:39 39.00599 -77.21246 5219 ft 198 kts 169°
2026-05-06 01:39 38.99377 -77.20676 5215 ft 176 kts 169°
2026-05-06 01:40 38.98279 -77.20135 5154 ft 166 kts 169°
2026-05-06 01:40 38.97231 -77.19481 4911 ft 176 kts 156°
2026-05-06 01:40 38.96296 -77.18286 4157 ft 206 kts 134°
2026-05-06 01:40 38.95584 -77.16589 3476 ft 223 kts 127°
2026-05-06 01:41 38.94888 -77.14912 3044 ft 218 kts 130°
2026-05-06 01:41 38.94112 -77.13286 2612 ft 204 kts 134°
2026-05-06 01:41 38.93371 -77.11858 2046 ft 182 kts 137°
2026-05-06 01:41 38.92646 -77.10594 1678 ft 179 kts 141°
2026-05-06 01:42 38.91824 -77.09426 1512 ft 173 kts 137°
2026-05-06 01:42 38.91112 -77.08195 1332 ft 169 kts 132°
2026-05-06 01:42 38.90460 -77.06997 1115 ft 162 kts 134°
2026-05-06 01:42 38.89774 -77.05920 834 ft 152 kts 139°
2026-05-06 01:43 38.88931 -77.04937 694 ft 161 kts 146°
2026-05-06 01:43 38.88010 -77.04265 491 ft 143 kts 160°
2026-05-06 01:43 38.87072 -77.03968 275 ft 136 kts 174°
2026-05-06 01:43 38.86168 -77.03870 67 ft 126 kts 178°
2026-05-06 01:44 38.85389 -77.03801 26 ft 88 kts 175°
2026-05-06 01:44 38.85028 -77.03764 26 ft 25 kts 175°
2026-05-06 01:44 38.84882 -77.03843 27 ft 13 kts 260°
2026-05-06 01:44 38.84879 -77.03865 28 ft 1 kts 260°
2026-05-06 01:45 38.84878 -77.03882 28 ft 3 kts 266°
2026-05-06 01:45 38.84881 -77.03916 29 ft 5 kts 292°
2026-05-06 01:45 38.84911 -77.03949 26 ft 7 kts 340°
2026-05-06 01:45 38.84965 -77.03963 26 ft 9 kts 350°
2026-05-06 01:46 38.85033 -77.03967 26 ft 11 kts 358°
2026-05-06 01:46 38.85116 -77.03974 26 ft 13 kts 355°
2026-05-06 01:46 38.85178 -77.03980 26 ft 0 kts 355°
2026-05-06 01:46 38.85181 -77.03980 26 ft 1 kts 355°
2026-05-06 01:47 38.85201 -77.03982 26 ft 4 kts 355°
2026-05-06 01:47 38.85240 -77.03986 26 ft 7 kts 355°
2026-05-06 01:47 38.85274 -77.03989 26 ft 3 kts 355°
2026-05-06 01:47 38.85287 -77.03991 26 ft 0 kts 355°
2026-05-06 01:48 38.85295 -77.03991 26 ft 0 kts 355°
2026-05-06 01:48 38.85302 -77.03992 26 ft 0 kts 355°
2026-05-06 01:48 38.85308 -77.03993 26 ft 1 kts 355°